Regional Weather Roundup
Issued by NWS Northern Indiana

Home | Current Version | Previous Version | Graphics & Text | Print | Product List | Glossary On
Versions: 1 2 3 4 5 6 7 8 9 10 11 12 13 14 15 16 17 18 19 20 21 22 23 24 25 26 27 28 29 30 31 32 33 34 35 36 37 38 39 40 41 42 43 44 45 46 47 48 49 50
347
ASUS43 KIWX 170310
RWRIWX

KIWX WEATHER ROUNDUP
NATIONAL WEATHER SERVICE NORTHERN INDIANA
1000 PM EST MON JAN 16 2017

NOTE: "FAIR" INDICATES FEW OR NO CLOUDS BELOW 12,000 FEET WITH NO
SIGNIFICANT WEATHER AND/OR OBSTRUCTIONS TO VISIBILITY.

* THESE STATIONS ARE NOT UNDER NWS QUALITY CONTROL. THEY ALSO MAY NOT
  REPORT WEATHER SUCH AS PRECIPITATION OR FOG.

INZ001>027-170400-
NORTHERN INDIANA

CITY           SKY/WX    TMP DP  RH WIND       PRES   REMARKS
VALPARAISO     FOG       38  38 100 E7        29.96F VSB 1/4
LAPORTE*       FOG       36  36 100 E8        29.97F VSB 1/2
KNOX*          CLOUDY    39  34  81 SE9       29.97F VSB 3/4
SOUTH BEND     FOG       36  36 100 SE9       30.00F VSB 3/4
GOSHEN         FOG       37  34  89 E10       30.00F VSB 3/4
ROCHESTER*     RAIN      43  43 100 SE8       29.99F VSB 1/2
WARSAW*        FOG       36  34  93 SE7       30.00F VSB 1/2
FORT WAYNE     FOG       37  36  96 E6        30.03F VSB 1/4
PERU/GRISSOM   LGT RAIN  44  44 100 SE9       29.97F VSB 3/4
MARION*        LGT RAIN  46  46 100 SE9       30.01F

$$
INZ028>050-170400-
CENTRAL INDIANA

CITY           SKY/WX    TMP DP  RH WIND       PRES   REMARKS
LAFAYETTE      HVY RAIN  49  49 100 CALM      29.97F FOG
KOKOMO*        RAIN      46  46 100 S8        30.00F FOG
MUNCIE*        CLOUDY    50  48  93 SE8       30.02F
INDIANAPOLIS   RAIN      51  50  96 SE14      30.01F FOG

$$
MIZ043>046-050>051-056>058-064>065-071>073-077>080-170400-
SOUTHWEST LOWER MICHIGAN

CITY           SKY/WX    TMP DP  RH WIND       PRES   REMARKS
BATTLE CREEK   LGT RAIN  34  34 100 VRB3      30.05F FOG
BENTON HARBOR  CLOUDY    38  35  89 E10       29.99F FOG
COLDWATER*     LGT RAIN  35  35 100 E12       30.05F WCI  26
HILLSDALE*     MIX PCPN  32  32 100 E10       30.06F WCI  24
HOLLAND        RAIN      34  33  96 E13       30.03F FOG     WCI  25
GRAND RAPIDS   LGT RAIN  33  31  92 E13       30.06F FOG     WCI  24
KALAMAZOO      LGT RAIN  36  33  89 E5        30.04F FOG
STURGIS*       MIX PCPN  35  35  99 E9        30.02F WCI  28
THREE RIVERS*  LGT RAIN  35  35 100 E7        30.03F WCI  29

$$
OHZ001>008-015>018-024>025-170400-
NORTHWEST OHIO

CITY           SKY/WX    TMP DP  RH WIND       PRES   REMARKS
DEFIANCE       CLOUDY    37  34  89 E6        30.08F FOG
FINDLAY        LGT RAIN  42  38  85 SE12      30.07F FOG
TOLEDO EXPRESS LGT RAIN  34  34 100 E7        30.10F VSB 1   WCI  28
TOLEDO METCALF MIX PCPN  35  35 100 NE7       30.12F VSB 1   WCI  29
LIMA           CLOUDY    43  43 100 SE14      30.06F FOG

$$
AND FOR LAKE MICHIGAN COASTAL AND OPEN LAKE BUOY OBSERVATIONS

STATION/POSITION TEMP    WIND        PRES    VSBY  WAVE
                 AIR SEA DIR/SP/G                  HT/PER
                 (F)     (DEG/KT/KT) (MB)    (MI)  (FT/S)
CALUMET HARBOR    35      90/  5/  7 1013.5F
MICHIGAN CITY     40     110/ 10/ 13   N/A
BURNS HARBOR      42     140/  9/ 17 1014.9F

$$
&&




USA.gov is the U.S. government's official web portal to all federal, state and local government web resources and services.